MKSRDG Weather Reports


time (UTC)temp
C
wind
direction
speed
KPH
gust
KPH
rain 1hr
cm
rain 24hr
cm
rain mn
cm
humidity
%
barometer
mb
20260506003945 14 342 6.4 14.5 0.00 0.03 0.03 85 1014.5
20260506002445 14 348 9.7 16.1 0.00 0.03 0.03 85 1014.5
20260506000945 14 345 8.0 14.5 0.00 0.03 0.03 83 1014.5
20260505235445 14 331 8.0 16.1 0.00 0.03 0.03 83 1014.6
20260505233946 14 338 8.0 11.3 0.00 0.03 0.03 83 1014.7
20260505232446 14 13 4.8 9.7 0.00 0.03 0.03 84 1014.9
20260505230946 14 345 4.8 17.7 0.00 0.03 0.03 83 1014.9
20260505225446 14 346 8.0 12.9 0.00 0.03 0.03 83 1014.9
20260505223946 14 309 6.4 12.9 0.00 0.03 0.03 82 1015.0
20260505222446 13 333 8.0 12.9 0.00 0.03 0.03 84 1015.1
20260505220946 13 308 8.0 14.5 0.00 0.03 0.03 84 1015.1
20260505215446 14 350 6.4 16.1 0.00 0.03 0.03 84 1015.2
20260505213946 13 27 6.4 12.9 0.00 0.03 0.03 84 1015.2
20260505212446 13 350 8.0 14.5 0.00 0.03 0.03 85 1015.3
20260505210946 13 9 8.0 11.3 0.00 0.03 0.03 84 1015.3
20260505205446 13 324 6.4 11.3 0.00 0.03 0.03 86 1015.3
20260505203946 13 344 8.0 12.9 0.00 0.03 0.03 85 1015.3
20260505202446 13 297 6.4 14.5 0.00 0.03 0.03 84 1015.4
20260505200946 13 346 4.8 11.3 0.00 0.03 0.03 84 1015.4
20260505195446 13 314 3.2 9.7 0.00 0.03 0.03 83 1015.4
20260505193946 13 292 3.2 9.7 0.00 0.03 0.03 87 1015.5
20260505192446 12 350 4.8 9.7 0.00 0.03 0.03 90 1015.6
20260505190946 12 314 4.8 6.4 0.00 0.03 0.03 89 1015.6
20260505185446 12 351 3.2 8.0 0.00 0.03 0.03 91 1015.6
20260505183946 11 345 3.2 6.4 0.00 0.03 0.03 92 1015.5
20260505182446 11 342 4.8 9.7 0.03 0.03 0.03 93 1015.5
20260505180946 11 332 3.2 6.4 0.03 0.03 0.03 93 1015.3
20260505175446 11 339 1.6 4.8 0.03 0.03 0.03 94 1015.4
20260505173946 11 25 1.6 6.4 0.03 0.03 0.03 94 1015.4
20260505172446 10 304 0.0 3.2 0.00 0.00 0.00 94 1015.2
20260505170946 10 341 1.6 3.2 0.00 0.00 0.00 95 1015.2
20260505165446 10 340 1.6 3.2 0.00 0.00 0.00 95 1015.2
20260505163946 10 346 0.0 3.2 0.00 0.00 0.00 95 1015.2
20260505162446 10 252 1.6 3.2 0.00 0.00 0.00 95 1015.2
20260505160946 10 350 1.6 3.2 0.00 0.00 0.00 96 1015.2
20260505152446 9 275 1.6 3.2 0.00 0.00 0.00 96 1015.0
20260505150946 9 311 0.0 3.2 0.00 0.00 0.00 95 1014.9
20260505123947 9 296 1.6 3.2 0.00 0.00 0.00 95 1013.9
20260505122447 9 319 3.2 6.4 0.00 0.00 0.00 95 1013.8
20260505120947 9 333 1.6 3.2 0.00 0.00 0.00 95 1013.8
20260505115447 9 338 0.0 3.2 0.00 0.00 0.00 95 1013.7
20260505113947 9 327 1.6 3.2 0.00 0.00 0.00 95 1013.8
20260505112447 9 316 0.0 3.2 0.00 0.00 0.00 95 1013.6
20260505110947 9 355 1.6 4.8 0.00 0.00 0.00 94 1013.7
20260505100947 10 327 3.2 4.8 0.00 0.00 0.00 93 1013.3
20260505095447 10 343 3.2 4.8 0.00 0.00 0.00 93 1013.1
20260505093947 10 309 1.6 4.8 0.00 0.00 0.00 93 1013.2
20260505092447 10 277 1.6 3.2 0.00 0.00 0.00 92 1013.1
20260505090947 10 332 1.6 3.2 0.00 0.00 0.00 92 1013.0
20260505085447 10 285 1.6 6.4 0.00 0.00 0.00 91 1013.0
20260505083947 10 247 1.6 3.2 0.00 0.00 0.00 91 1013.0
20260505082447 10 262 1.6 8.0 0.00 0.00 0.00 91 1012.9
20260505080947 11 296 1.6 8.0 0.00 0.00 0.00 90 1012.9
20260505075519 11 286 0.0 3.2 0.00 0.00 0.00 91 1012.8
20260505075447 11 286 0.0 3.2 0.00 0.00 0.00 91 1012.8
20260505073947 11 316 0.0 3.2 0.00 0.00 0.00 91 1012.8
20260505072447 11 327 0.0 1.6 0.00 0.00 0.00 90 1012.7
20260505070947 11 310 1.6 3.2 0.00 0.00 0.00 90 1012.7
20260505065447 11 302 1.6 3.2 0.00 0.00 0.00 89 1012.5
20260505063947 11 272 1.6 4.8 0.00 0.00 0.00 89 1012.5
20260505062447 11 355 1.6 3.2 0.00 0.00 0.00 89 1012.4
20260505060947 11 288 1.6 4.8 0.00 0.00 0.00 89 1012.4
20260505055447 12 252 3.2 4.8 0.00 0.00 0.00 88 1012.4
20260505053947 12 271 1.6 11.3 0.00 0.00 0.00 87 1012.4
20260505052447 12 289 3.2 6.4 0.00 0.00 0.00 87 1012.3
20260505050948 12 281 1.6 4.8 0.00 0.00 0.00 89 1012.3
20260505040948 13 315 4.8 9.7 0.00 0.00 0.00 85 1011.5
20260505035448 13 342 3.2 4.8 0.00 0.00 0.00 86 1011.4
20260505033948 13 346 3.2 3.2 0.00 0.00 0.00 85 1010.9
20260505032448 14 274 4.8 11.3 0.00 0.00 0.00 83 1010.6
20260505030948 15 281 6.4 11.3 0.00 0.00 0.00 82 1010.4
20260505025448 15 290 6.4 11.3 0.00 0.00 0.00 81 1010.2
20260505023948 16 300 6.4 11.3 0.00 0.00 0.00 79 1010.1
20260505022448 16 313 6.4 8.0 0.00 0.00 0.00 81 1010.0
20260505020948 16 346 8.0 12.9 0.00 0.00 0.00 77 1010.0
20260505015448 17 5 6.4 11.3 0.00 0.00 0.00 75 1009.9
20260505013948 18 323 8.0 12.9 0.00 0.00 0.00 74 1009.9
20260505012448 18 337 8.0 12.9 0.00 0.00 0.00 73 1010.1
20260505010948 18 321 8.0 16.1 0.00 0.00 0.00 72 1010.1
20260505005448 18 350 9.7 14.5 0.00 0.00 0.00 72 1010.2